Haleyville, AL

9:05 AM CDT on May 24, 2018 (GMT -0500)
Haleyville

Weather History for K1M4 - October, 2013

Change the Weather History Date:

Saturday, October 5, 2013

  Actual Average (KJFX) Record (KJFX)
Temperature  
Mean Temperature 75 °F -  
Max Temperature 86 °F 78 °F 93 °F (2016)
Min Temperature 64 °F 48 °F 33 °F (1961)
Cooling Degree Days 10    
Growing Degree Days 25 (Base 50)    
Moisture  
Dew Point 68 °F    
Average Humidity 76    
Maximum Humidity 100    
Minimum Humidity 56    
Precipitation  
Precipitation 0.00 in - - ()
Sea Level Pressure  
Sea Level Pressure 30.11 in    
Wind  
Wind Speed 4 mph (SSE)    
Max Wind Speed 12 mph    
Max Gust Speed -    
Visibility 10 miles    
Events      
Averages and records for this station are not official NWS values.
T = Trace of Precipitation, MM = Missing Value Source: NWS Daily Summary

Daily Weather History Graph

Daily Weather History Graph

Search for Another Location

Airport or City:

Astronomy

Oct. 05, 2013 Rise Set
Actual Time 6:48 AM CDT 6:28 PM CDT
Civil Twilight 6:23 AM CDT 6:53 PM CDT
Nautical Twilight 5:53 AM CDT 7:22 PM CDT
Astronomical Twilight 5:24 AM CDT 7:51 PM CDT
Moon 7:23 AM CDT (10/5) 6:51 PM CDT (10/5)
Length of Visible Light 12h 30m
Length of Day
11h 40m
New Moon, 1% of the Moon is Illuminated
Oct 5
New Moon
Oct 11
First Quarter
Oct 18
Full
Oct 26
Last Quarter
Nov 3
New

Hourly Weather History & Observations

Time (CDT) Temp. Heat Index Dew Point Humidity Pressure Visibility Wind Dir Wind Speed Gust Speed Precip Events Conditions
12:56 AM 70.9 °F - 66.9 °F 87% 30.15 in 10.0 mi Calm Calm - N/A   Clear
1:56 AM 70.9 °F - 65.8 °F 84% 30.15 in 10.0 mi SE 5.8 mph - N/A   Clear
2:56 AM 66.9 °F - 64.9 °F 93% 30.14 in 10.0 mi Calm Calm - N/A   Clear
3:56 AM 64.9 °F - 64.9 °F 100% 30.14 in 6.0 mi Calm Calm - N/A   Clear
4:56 AM 68.0 °F - 65.8 °F 93% 30.15 in 10.0 mi ESE 3.5 mph - N/A   Clear
5:56 AM 68.9 °F - 65.8 °F 90% 30.15 in 10.0 mi SE 6.9 mph - N/A   Clear
6:56 AM 68.9 °F - 65.8 °F 90% 30.15 in 10.0 mi Calm Calm - N/A   Clear
7:56 AM 70.9 °F - 65.8 °F 84% 30.15 in 10.0 mi SSE 6.9 mph - N/A   Clear
8:56 AM 73.9 °F - 66.9 °F 79% 30.16 in 10.0 mi SSE 8.1 mph - N/A   Clear
9:56 AM 77.9 °F - 68.9 °F 74% 30.16 in 10.0 mi SSE 9.2 mph - N/A   Clear
10:56 AM 81.9 °F 85.6 °F 70.0 °F 67% 30.16 in 10.0 mi South 11.5 mph - N/A   Clear
11:56 AM 83.8 °F 88.1 °F 70.0 °F 63% 30.15 in 10.0 mi SSW 8.1 mph - N/A   Clear
12:56 PM 86.0 °F 89.7 °F 68.9 °F 56% 30.13 in 10.0 mi SSW 8.1 mph - N/A   Partly Cloudy
1:56 PM 86.0 °F 89.7 °F 68.9 °F 56% 30.10 in 10.0 mi Variable 6.9 mph - N/A   Partly Cloudy
2:56 PM 86.0 °F 89.7 °F 68.9 °F 56% 30.07 in 10.0 mi SSE 6.9 mph - N/A   Clear
3:56 PM 84.9 °F 88.8 °F 68.9 °F 59% 30.05 in 10.0 mi Variable 3.5 mph - N/A   Partly Cloudy
4:56 PM 83.8 °F 87.5 °F 68.9 °F 61% 30.04 in 10.0 mi SSE 4.6 mph - N/A   Scattered Clouds
5:56 PM 81.0 °F 84.7 °F 70.9 °F 71% 30.04 in 10.0 mi Calm Calm - N/A   Clear
6:56 PM 74.8 °F - 70.0 °F 85% 30.05 in 10.0 mi SE 4.6 mph - N/A   Partly Cloudy
7:56 PM 75.9 °F - 68.9 °F 79% 30.06 in 10.0 mi Calm Calm - N/A   Partly Cloudy
8:56 PM 75.9 °F - 66.9 °F 74% 30.06 in 10.0 mi SE 5.8 mph - N/A   Scattered Clouds
9:56 PM 73.9 °F - 66.9 °F 79% 30.06 in 10.0 mi SE 5.8 mph - N/A   Clear
10:56 PM 72.9 °F - 65.8 °F 79% 30.04 in 10.0 mi SSE 6.9 mph - N/A   Clear
11:56 PM 72.9 °F - 64.9 °F 76% 30.03 in 10.0 mi SSE 10.4 mph - N/A   Clear